Location: Makanda
(37.6176°N, 89.2090°W)
Time: 09:26:54
(UTC+00:00)

Cosmos 2297 Rocket - Pass Details

Date: 23 September 2019
Orbit: 841 x 842 km, 71.0° (Epoch: 17 October)

Event Time Altitude Azimuth Distance (km) Brightness Sun altitude
Rises 09:52:29 0° 348° (NNW) 3,404 5.4 -22.8°
Reaches altitude 10° 09:55:19 10° 0° (N) 2,465 4.8 -22.2°
Maximum altitude 10:00:05 27° 58° (ENE) 1,552 4.3 -21.3°
Drops below altitude 10° 10:04:50 10° 116° (ESE) 2,453 5.3 -20.4°
Sets 10:07:37 0° 128° (SE) 3,384 5.9 -19.9°
